TimeIST,TemperatureF,Dew PointF,Humidity,Sea Level PressureIn,VisibilityMPH,Wind Direction,Wind SpeedMPH,Gust SpeedMPH,PrecipitationIn,Events,Conditions,WindDirDegrees,DateUTC
12:00 AM,78.8,59.0,51,29.89,1.5,Calm,Calm,-,N/A,,Haze,0,2012-10-14 18:30:00
12:30 AM,78.8,59.0,51,29.89,1.5,Calm,Calm,-,N/A,,Haze,0,2012-10-14 19:00:00
1:00 AM,77.0,59.0,54,29.89,1.5,Calm,Calm,-,N/A,,Haze,0,2012-10-14 19:30:00
1:30 AM,75.2,59.0,57,29.89,1.5,Calm,Calm,-,N/A,,Haze,0,2012-10-14 20:00:00
2:00 AM,75.2,59.0,57,29.89,1.5,Calm,Calm,-,N/A,,Haze,0,2012-10-14 20:30:00
2:30 AM,75.2,59.0,57,29.89,1.5,Calm,Calm,-,N/A,,Haze,0,2012-10-14 21:00:00
3:00 AM,75.2,57.2,53,29.89,1.5,Calm,Calm,-,N/A,,Haze,0,2012-10-14 21:30:00
3:30 AM,75.2,55.4,50,29.89,1.7,Calm,Calm,-,N/A,,Haze,0,2012-10-14 22:00:00
4:00 AM,75.2,55.4,50,29.89,1.7,Calm,Calm,-,N/A,,Haze,0,2012-10-14 22:30:00
4:30 AM,75.2,55.4,50,29.89,1.7,Calm,Calm,-,N/A,,Haze,0,2012-10-14 23:00:00
5:00 AM,75.2,55.4,50,29.89,1.7,Calm,Calm,-,N/A,,Haze,0,2012-10-14 23:30:00
5:30 AM,73.4,55.4,53,29.89,1.7,Calm,Calm,-,N/A,,Haze,0,2012-10-15 00:00:00
6:00 AM,73.4,55.4,53,29.92,1.7,Calm,Calm,-,N/A,,Haze,0,2012-10-15 00:30:00
7:00 AM,71.6,53.6,53,29.92,1.5,Calm,Calm,-,N/A,,Haze,0,2012-10-15 01:30:00
7:30 AM,71.6,53.6,53,29.92,1.4,Calm,Calm,-,N/A,,Haze,0,2012-10-15 02:00:00
8:00 AM,75.2,53.6,47,29.95,1.4,WSW,5.8,-,N/A,,Haze,250,2012-10-15 02:30:00
8:30 AM,77.0,53.6,44,29.98,1.7,WSW,5.8,-,N/A,,Haze,250,2012-10-15 03:00:00
9:00 AM,78.8,55.4,44,29.98,1.7,WSW,5.8,-,N/A,,Haze,250,2012-10-15 03:30:00
10:00 AM,82.4,57.2,42,29.98,2.2,West,4.6,-,N/A,,Haze,270,2012-10-15 04:30:00
11:00 AM,87.8,59.0,38,29.95,2.2,West,5.8,-,N/A,,Haze,260,2012-10-15 05:30:00
11:30 AM,89.6,59.0,36,29.95,2.2,West,5.8,-,N/A,,Haze,260,2012-10-15 06:00:00
12:00 PM,91.4,57.2,31,29.95,2.2,WSW,4.6,-,N/A,,Haze,240,2012-10-15 06:30:00
12:30 PM,91.4,55.4,29,29.95,2.2,WSW,4.6,-,N/A,,Haze,250,2012-10-15 07:00:00
1:00 PM,91.4,55.4,29,29.92,2.2,WNW,5.8,-,N/A,,Haze,300,2012-10-15 07:30:00
1:30 PM,93.2,55.4,28,29.92,2.5,WNW,5.8,-,N/A,,Haze,300,2012-10-15 08:00:00
2:00 PM,93.2,55.4,28,29.89,2.5,NW,10.4,-,N/A,,Haze,310,2012-10-15 08:30:00
2:30 PM,93.2,55.4,28,29.89,2.5,WNW,10.4,-,N/A,,Haze,300,2012-10-15 09:00:00
3:00 PM,93.2,53.6,26,29.89,2.8,WNW,11.5,-,N/A,,Haze,300,2012-10-15 09:30:00
4:00 PM,93.2,53.6,26,29.89,3.1,NW,8.1,-,N/A,,Haze,320,2012-10-15 10:30:00
4:30 PM,93.2,53.6,26,29.89,3.1,NW,9.2,-,N/A,,Haze,320,2012-10-15 11:00:00
5:00 PM,91.4,53.6,28,29.89,3.1,NNW,6.9,-,N/A,,Haze,330,2012-10-15 11:30:00
5:30 PM,89.6,55.4,31,29.89,3.1,North,5.8,-,N/A,,Haze,350,2012-10-15 12:00:00
6:00 PM,87.8,55.4,33,29.89,2.5,NNE,6.9,-,N/A,,Haze,20,2012-10-15 12:30:00
6:30 PM,86.0,55.4,35,29.89,2.5,NNE,6.9,-,N/A,,Haze,20,2012-10-15 13:00:00
7:00 PM,84.2,57.2,40,29.89,2.2,NNE,4.6,-,N/A,,Haze,30,2012-10-15 13:30:00
7:30 PM,84.2,59.0,42,29.92,2.2,North,5.8,-,N/A,,Haze,10,2012-10-15 14:00:00
9:00 PM,80.6,62.6,54,29.98,0.9,NNW,13.8,-,N/A,,Haze,340,2012-10-15 15:30:00
9:30 PM,80.6,62.6,54,29.98,0.9,North,9.2,-,N/A,,Smoke,350,2012-10-15 16:00:00
10:30 PM,77.0,57.2,50,29.98,1.2,NNW,9.2,-,N/A,,Smoke,340,2012-10-15 17:00:00
11:00 PM,75.2,55.4,50,30.04,1.2,NW,17.3,28.8,N/A,,Smoke,320,2012-10-15 17:30:00
11:30 PM,73.4,55.4,53,30.04,1.2,NW,17.3,28.8,N/A,,Smoke,320,2012-10-15 18:00:00